Time,TemperatureF,DewpointF,PressureIn,WindDirection,WindDirectionDegrees,WindSpeedMPH,WindSpeedGustMPH,Humidity,HourlyPrecipIn,Conditions,Clouds,dailyrainin,SoftwareType,DateUTC
2013-09-13 00:22:00,67.0,44.0,-100.00,SE,125,11.0,14.0,43,-99.99,,,0.00,,2013-09-13 06:22:00,
2013-09-13 00:42:00,66.0,44.0,-100.00,SE,130,11.0,15.0,44,-99.99,,,0.00,,2013-09-13 06:42:00,
2013-09-13 00:52:00,66.0,44.0,-100.00,SE,130,11.0,15.0,44,-99.99,,,0.00,,2013-09-13 06:52:00,
2013-09-13 01:00:00,68.0,45.0,-100.00,South,190,7.0,11.0,44,-99.99,,,0.00,,2013-09-13 07:00:00,
2013-09-13 01:11:00,67.0,44.0,-100.00,SSE,150,8.0,13.0,44,-99.99,,,0.00,,2013-09-13 07:11:00,
2013-09-13 01:42:00,68.0,45.0,-100.00,South,190,7.0,11.0,44,-99.99,,,0.00,,2013-09-13 07:42:00,
2013-09-13 01:52:00,68.0,45.0,-100.00,South,190,7.0,11.0,44,-99.99,,,0.00,,2013-09-13 07:52:00,
2013-09-13 02:42:00,65.0,45.0,-100.00,South,180,2.0,6.0,48,-99.99,,,0.00,,2013-09-13 08:42:00,
2013-09-13 02:52:00,65.0,45.0,-100.00,South,180,2.0,6.0,48,-99.99,,,0.00,,2013-09-13 08:52:00,
2013-09-13 03:00:00,63.0,46.0,-100.00,ESE,105,9.0,11.0,53,-99.99,,,0.00,,2013-09-13 09:00:00,
2013-09-13 03:12:00,64.0,45.0,-100.00,SE,130,4.0,6.0,50,-99.99,,,0.00,,2013-09-13 09:12:00,
2013-09-13 03:21:00,64.0,45.0,-100.00,SE,130,4.0,6.0,50,-99.99,,,0.00,,2013-09-13 09:21:00,
2013-09-13 03:53:00,63.0,46.0,-100.00,ESE,105,9.0,11.0,53,-99.99,,,0.00,,2013-09-13 09:53:00,
2013-09-13 07:00:00,60.0,47.0,-100.00,NNW,345,9.0,9.0,61,-99.99,,,0.00,,2013-09-13 13:00:00,
2013-09-13 07:21:00,61.0,46.0,-100.00,West,280,1.0,3.0,58,-99.99,,,0.00,,2013-09-13 13:21:00,
2013-09-13 07:30:00,61.0,48.0,-100.00,North,350,8.0,11.0,62,-99.99,,,0.00,,2013-09-13 13:30:00,
2013-09-13 07:42:00,60.0,47.0,-100.00,NNW,345,9.0,9.0,61,-99.99,,,0.00,,2013-09-13 13:42:00,
2013-09-13 07:52:00,60.0,47.0,-100.00,NNW,345,9.0,9.0,61,-99.99,,,0.00,,2013-09-13 13:52:00,
2013-09-13 08:21:00,61.0,48.0,-100.00,North,350,8.0,11.0,62,-99.99,,,0.00,,2013-09-13 14:21:00,
2013-09-13 08:52:00,64.0,49.0,-100.00,North,0,6.0,9.0,58,-99.99,,,0.00,,2013-09-13 14:52:00,
2013-09-13 09:11:00,66.0,50.0,-100.00,NNW,330,1.0,6.0,56,-99.99,,,0.00,,2013-09-13 15:11:00,
2013-09-13 09:22:00,66.0,50.0,-100.00,NNW,330,1.0,6.0,56,-99.99,,,0.00,,2013-09-13 15:22:00,
2013-09-13 09:43:00,68.0,50.0,-100.00,NW,320,6.0,9.0,52,-99.99,,,0.00,,2013-09-13 15:43:00,
2013-09-13 09:53:00,68.0,50.0,-100.00,NW,320,6.0,9.0,52,-99.99,,,0.00,,2013-09-13 15:53:00,
2013-09-13 10:00:00,71.0,50.0,-100.00,NNW,335,3.0,6.0,48,-99.99,,,0.00,,2013-09-13 16:00:00,
2013-09-13 10:12:00,70.0,50.0,-100.00,NNW,330,5.0,8.0,49,-99.99,,,0.00,,2013-09-13 16:12:00,
2013-09-13 10:24:00,70.0,50.0,-100.00,NNW,330,5.0,8.0,49,-99.99,,,0.00,,2013-09-13 16:24:00,
2013-09-13 10:43:00,71.0,50.0,-100.00,NNW,335,3.0,6.0,48,-99.99,,,0.00,,2013-09-13 16:43:00,
2013-09-13 10:54:00,71.0,50.0,-100.00,NNW,335,3.0,6.0,48,-99.99,,,0.00,,2013-09-13 16:54:00,
2013-09-13 11:00:00,74.0,51.0,-100.00,ENE,70,3.0,10.0,43,-99.99,,,0.00,,2013-09-13 17:00:00,
2013-09-13 11:23:00,72.0,50.0,-100.00,SE,140,1.0,4.0,46,-99.99,,,0.00,,2013-09-13 17:23:00,
2013-09-13 11:44:00,74.0,51.0,-100.00,ENE,70,3.0,10.0,43,-99.99,,,0.00,,2013-09-13 17:44:00,
2013-09-13 11:53:00,74.0,51.0,-100.00,ENE,70,3.0,10.0,43,-99.99,,,0.00,,2013-09-13 17:53:00,
2013-09-13 12:22:00,77.0,51.0,-100.00,SSE,155,4.0,11.0,40,-99.99,,,0.00,,2013-09-13 18:22:00,
2013-09-13 12:42:00,78.0,51.0,-100.00,South,180,11.0,17.0,38,-99.99,,,0.00,,2013-09-13 18:42:00,
2013-09-13 12:52:00,78.0,51.0,-100.00,South,180,11.0,17.0,38,-99.99,,,0.00,,2013-09-13 18:52:00,
2013-09-13 13:11:00,77.0,50.0,-100.00,SSW,195,9.0,17.0,39,-99.99,,,0.00,,2013-09-13 19:11:00,
2013-09-13 13:22:00,77.0,50.0,-100.00,SSW,195,9.0,17.0,39,-99.99,,,0.00,,2013-09-13 19:22:00,
2013-09-13 13:43:00,77.0,50.0,-100.00,SSE,155,4.0,13.0,39,-99.99,,,0.00,,2013-09-13 19:43:00,
2013-09-13 13:52:00,77.0,50.0,-100.00,SSE,155,4.0,13.0,39,-99.99,,,0.00,,2013-09-13 19:52:00,
2013-09-13 14:00:00,78.0,50.0,-100.00,SSW,200,9.0,14.0,38,-99.99,,,0.00,,2013-09-13 20:00:00,
2013-09-13 14:11:00,78.0,50.0,-100.00,South,175,4.0,10.0,38,-99.99,,,0.00,,2013-09-13 20:11:00,
2013-09-13 14:42:00,78.0,50.0,-100.00,SSW,200,9.0,14.0,38,-99.99,,,0.00,,2013-09-13 20:42:00,
2013-09-13 14:52:00,78.0,50.0,-100.00,SSW,200,9.0,14.0,38,-99.99,,,0.00,,2013-09-13 20:52:00,
2013-09-13 15:21:00,79.0,50.0,-100.00,SSE,165,6.0,13.0,37,-99.99,,,0.00,,2013-09-13 21:21:00,
2013-09-13 15:44:00,79.0,50.0,-100.00,SSW,210,6.0,10.0,37,-99.99,,,0.00,,2013-09-13 21:44:00,
2013-09-13 15:54:00,79.0,50.0,-100.00,SSW,210,6.0,10.0,37,-99.99,,,0.00,,2013-09-13 21:54:00,
2013-09-13 16:13:00,80.0,51.0,-100.00,WNW,300,4.0,8.0,36,-99.99,,,0.00,,2013-09-13 22:13:00,
2013-09-13 16:43:00,79.0,50.0,-100.00,SSE,150,5.0,8.0,37,-99.99,,,0.00,,2013-09-13 22:43:00,
2013-09-13 16:53:00,79.0,50.0,-100.00,SSE,150,5.0,8.0,37,-99.99,,,0.00,,2013-09-13 22:53:00,
2013-09-13 17:12:00,78.0,51.0,-100.00,SSW,210,3.0,8.0,38,-99.99,,,0.00,,2013-09-13 23:12:00,
2013-09-13 17:22:00,78.0,51.0,-100.00,SSW,210,3.0,8.0,38,-99.99,,,0.00,,2013-09-13 23:22:00,
2013-09-13 17:42:00,76.0,51.0,-100.00,WNW,285,6.0,9.0,42,-99.99,,,0.00,,2013-09-13 23:42:00,
2013-09-13 17:52:00,76.0,51.0,-100.00,WNW,285,6.0,9.0,42,-99.99,,,0.00,,2013-09-13 23:52:00,
2013-09-13 18:00:00,73.0,50.0,-100.00,SSE,165,12.0,17.0,44,-99.99,,,0.00,,2013-09-14 00:00:00,
2013-09-13 18:12:00,75.0,50.0,-100.00,South,170,12.0,19.0,41,-99.99,,,0.00,,2013-09-14 00:12:00,
2013-09-13 18:22:00,75.0,50.0,-100.00,South,170,12.0,19.0,41,-99.99,,,0.00,,2013-09-14 00:22:00,
2013-09-13 18:52:00,73.0,50.0,-100.00,SSE,165,12.0,17.0,44,-99.99,,,0.00,,2013-09-14 00:52:00,
2013-09-13 19:00:00,69.0,52.0,-100.00,SSE,160,11.0,16.0,55,-99.99,,,0.00,,2013-09-14 01:00:00,
2013-09-13 19:21:00,70.0,51.0,-100.00,SSE,165,11.0,16.0,51,-99.99,,,0.00,,2013-09-14 01:21:00,
2013-09-13 19:31:00,66.0,54.0,-100.00,SSE,155,14.0,21.0,65,-99.99,,,0.00,,2013-09-14 01:31:00,
2013-09-13 19:42:00,69.0,52.0,-100.00,South,180,12.0,14.0,54,-99.99,,,0.00,,2013-09-14 01:42:00,
2013-09-13 19:52:00,69.0,52.0,-100.00,SSE,160,11.0,16.0,55,-99.99,,,0.00,,2013-09-14 01:52:00,
2013-09-13 20:22:00,66.0,54.0,-100.00,SSE,155,14.0,21.0,65,-99.99,,,0.00,,2013-09-14 02:22:00,
2013-09-13 20:52:00,65.0,55.0,-100.00,SSE,165,12.0,22.0,72,-99.99,,,0.00,,2013-09-14 02:52:00,
2013-09-13 21:00:00,61.0,56.0,-100.00,SSW,205,6.0,14.0,83,-99.99,,,0.00,,2013-09-14 03:00:00,
2013-09-13 21:11:00,63.0,55.0,-100.00,SSE,160,11.0,15.0,75,-99.99,,,0.00,,2013-09-14 03:11:00,
2013-09-13 21:22:00,63.0,55.0,-100.00,SSE,160,11.0,15.0,75,-99.99,,,0.00,,2013-09-14 03:22:00,
2013-09-13 21:44:00,61.0,56.0,-100.00,SSW,205,6.0,14.0,83,-99.99,,,0.00,,2013-09-14 03:44:00,
2013-09-13 21:54:00,61.0,56.0,-100.00,SSW,205,6.0,14.0,83,-99.99,,,0.00,,2013-09-14 03:54:00,
2013-09-13 22:00:00,60.0,55.0,-100.00,WSW,240,9.0,12.0,84,-99.99,,,0.00,,2013-09-14 04:00:00,
2013-09-13 22:43:00,60.0,55.0,-100.00,WSW,240,9.0,12.0,84,-99.99,,,0.00,,2013-09-14 04:43:00,
2013-09-13 22:54:00,60.0,55.0,-100.00,WSW,240,9.0,12.0,84,-99.99,,,0.00,,2013-09-14 04:54:00,
2013-09-13 23:00:00,59.0,55.0,-100.00,WSW,255,14.0,18.0,87,-99.99,,,0.00,,2013-09-14 05:00:00,
2013-09-13 23:43:00,59.0,55.0,-100.00,WSW,255,14.0,18.0,87,-99.99,,,0.00,,2013-09-14 05:43:00,
2013-09-13 23:52:00,59.0,55.0,-100.00,WSW,255,14.0,18.0,87,-99.99,,,0.00,,2013-09-14 05:52:00,